FW9262 Weather Reports


time (UTC)temp
C
wind
direction
speed
KPH
gust
KPH
rain 1hr
cm
rain 24hr
cm
rain mn
cm
humidity
%
barometer
mb
20260508065727 16 327 0.0 3.2 0.00 0.00 0.00 90 1018.7
20260508065225 16 3 0.0 1.6 0.00 0.00 0.00 90 1018.7
20260508064723 16 243 3.2 3.2 0.00 0.00 0.00 89 1018.7
20260508064221 16 11 0.0 1.6 0.00 0.00 0.00 89 1018.7
20260508063718 16 339 0.0 0.0 0.00 0.00 0.00 89 1018.7
20260508063216 16 325 0.0 4.8 0.00 0.00 0.00 89 1018.7
20260508062713 16 274 0.0 1.6 0.00 0.00 0.00 89 1018.7
20260508062210 16 312 1.6 3.2 0.00 0.00 0.00 89 1018.7
20260508061707 16 329 1.6 3.2 0.00 0.00 0.00 89 1018.7
20260508061204 16 297 3.2 3.2 0.00 0.00 0.00 89 1018.7
20260508060702 16 316 0.0 0.0 0.00 0.00 0.00 90 1018.3
20260508060158 16 313 0.0 0.0 0.00 0.00 0.00 90 1018.3
20260508055654 16 338 0.0 0.0 0.00 0.00 0.00 90 1018.3
20260508055151 16 0 0.0 1.6 0.00 0.00 0.00 90 1018.3
20260508054647 16 309 0.0 0.0 0.00 0.00 0.00 90 1018.3
20260508054145 16 336 0.0 0.0 0.00 0.00 0.00 90 1018.7
20260508053642 16 329 0.0 0.0 0.00 0.00 0.00 90 1018.7
20260508053139 16 339 0.0 0.0 0.00 0.00 0.00 90 1018.7
20260508052636 16 326 0.0 1.6 0.00 0.00 0.00 90 1018.3
20260508052133 16 338 0.0 0.0 0.00 0.00 0.00 90 1018.3
20260508051629 15 343 0.0 1.6 0.00 0.00 0.00 90 1018.7
20260508051125 15 309 0.0 1.6 0.00 0.00 0.00 91 1018.7
20260508050621 15 319 0.0 1.6 0.00 0.00 0.00 90 1018.7
20260508050119 15 334 0.0 3.2 0.00 0.00 0.00 90 1018.7
20260508045615 15 341 0.0 1.6 0.00 0.00 0.00 90 1018.7
20260508045113 15 342 0.0 1.6 0.00 0.00 0.00 90 1018.3
20260508044610 15 328 0.0 1.6 0.00 0.00 0.00 90 1018.3
20260508044106 15 310 0.0 1.6 0.00 0.00 0.00 90 1018.3
20260508043602 15 313 1.6 1.6 0.00 0.00 0.00 90 1018.0
20260508043100 15 320 0.0 0.0 0.00 0.00 0.00 91 1018.0
20260508042557 15 328 0.0 0.0 0.00 0.00 0.00 91 1018.0
20260508042054 15 335 0.0 3.2 0.00 0.00 0.00 91 1018.3
20260508041550 15 299 1.6 1.6 0.00 0.00 0.00 91 1017.6
20260508041047 15 276 3.2 3.2 0.00 0.00 0.00 91 1017.6
20260508040543 15 319 1.6 1.6 0.00 0.00 0.00 91 1017.6
20260508040042 15 348 0.0 3.2 0.00 0.00 0.00 91 1017.6
20260508035538 15 309 0.0 3.2 0.00 0.00 0.00 91 1017.6
20260508035035 15 339 0.0 3.2 0.00 0.00 0.00 91 1017.6
20260508034532 15 231 1.6 1.6 0.00 0.00 0.00 91 1017.6
20260508034029 15 270 3.2 3.2 0.00 0.00 0.00 91 1017.6
20260508033527 15 324 3.2 3.2 0.00 0.00 0.00 91 1017.3
20260508033025 15 267 1.6 4.8 0.00 0.00 0.00 91 1017.3
20260508032521 15 317 3.2 6.4 0.00 0.00 0.00 91 1017.3
20260508032019 15 12 1.6 6.4 0.00 0.00 0.00 90 1017.3
20260508031516 15 306 1.6 4.8 0.00 0.00 0.00 90 1017.0
20260508031011 15 289 3.2 4.8 0.00 0.00 0.00 90 1017.3
20260508030508 15 255 4.8 9.7 0.00 0.00 0.00 90 1017.0
20260508030007 15 248 4.8 4.8 0.00 0.00 0.00 89 1017.0
20260508025502 15 295 3.2 3.2 0.00 0.00 0.00 89 1017.0
20260508024959 15 246 1.6 3.2 0.00 0.00 0.00 89 1017.0
20260508024455 16 253 4.8 9.7 0.00 0.00 0.00 88 1017.0
20260508023952 16 203 3.2 4.8 0.00 0.00 0.00 88 1016.6
20260508023449 16 238 3.2 9.7 0.00 0.00 0.00 87 1017.0
20260508022946 16 233 3.2 6.4 0.00 0.00 0.00 86 1017.0
20260508022442 16 261 3.2 4.8 0.00 0.00 0.00 86 1016.6
20260508021938 16 334 1.6 6.4 0.00 0.00 0.00 85 1016.6
20260508021435 16 286 1.6 6.4 0.00 0.00 0.00 84 1016.6
20260508020931 16 198 3.2 4.8 0.00 0.00 0.00 83 1016.6
20260508020429 16 282 4.8 6.4 0.00 0.00 0.00 82 1016.6
20260508015926 16 299 3.2 6.4 0.00 0.00 0.00 82 1016.3
20260508015424 16 281 6.4 11.3 0.00 0.00 0.00 83 1016.6
20260508014920 16 288 3.2 9.7 0.00 0.00 0.00 83 1016.3
20260508014417 17 302 3.2 11.3 0.00 0.00 0.00 82 1016.3
20260508013912 17 279 3.2 9.7 0.00 0.00 0.00 82 1016.6
20260508013408 17 273 3.2 9.7 0.00 0.00 0.00 82 1016.3
20260508012906 17 349 4.8 11.3 0.00 0.00 0.00 82 1016.6
20260508012403 17 312 3.2 9.7 0.00 0.00 0.00 82 1016.3
20260508011901 17 354 3.2 3.2 0.00 0.00 0.00 81 1016.3
20260508011359 17 250 6.4 9.7 0.00 0.00 0.00 82 1016.6
20260508010855 17 224 4.8 6.4 0.00 0.00 0.00 81 1016.6
20260508010353 17 243 3.2 12.9 0.00 0.00 0.00 80 1016.6
20260508005850 17 260 3.2 6.4 0.00 0.00 0.00 79 1016.3
20260508005346 17 327 1.6 3.2 0.00 0.00 0.00 78 1016.6
20260508004843 17 227 6.4 9.7 0.00 0.00 0.00 78 1016.3
20260508004339 18 229 4.8 16.1 0.00 0.00 0.00 78 1016.3
20260508003835 18 255 9.7 11.3 0.00 0.00 0.00 78 1016.3
20260508003333 18 330 3.2 6.4 0.00 0.00 0.00 78 1016.3
20260508002830 18 261 6.4 11.3 0.00 0.00 0.00 76 1016.3
20260508002326 18 244 6.4 6.4 0.00 0.00 0.00 75 1016.6
20260508001823 18 326 1.6 6.4 0.00 0.00 0.00 75 1016.6
20260508001319 19 260 4.8 9.7 0.00 0.00 0.00 73 1016.6
20260508000815 19 108 3.2 11.3 0.00 0.00 0.00 73 1016.3
20260508000312 19 308 4.8 9.7 0.00 0.00 0.00 74 1016.3
20260507235808 19 270 1.6 4.8 0.00 0.00 0.00 74 1016.6
20260507235307 18 293 4.8 11.3 0.00 0.00 0.00 74 1016.6
20260507234803 18 253 6.4 11.3 0.00 0.00 0.00 75 1016.6
20260507234259 18 252 4.8 11.3 0.00 0.00 0.00 76 1016.6
20260507233755 19 274 6.4 11.3 0.00 0.00 0.00 75 1017.0
20260507233253 18 254 6.4 11.3 0.00 0.00 0.00 76 1016.6
20260507232751 18 298 1.6 11.3 0.00 0.00 0.00 76 1016.6
20260507232247 18 253 1.6 4.8 0.00 0.00 0.00 78 1016.6
20260507231744 18 314 3.2 12.9 0.00 0.00 0.00 77 1016.6
20260507231241 18 121 3.2 12.9 0.00 0.00 0.00 77 1016.3
20260507230737 19 35 3.2 4.8 0.00 0.00 0.00 77 1016.6
20260507230235 19 329 1.6 11.3 0.00 0.00 0.00 78 1017.0
20260507225734 19 262 6.4 9.7 0.00 0.00 0.00 76 1017.0
20260507225231 20 246 8.0 11.3 0.00 0.00 0.00 75 1016.6
20260507224727 20 207 3.2 6.4 0.00 0.00 0.00 73 1016.6
20260507224224 20 206 6.4 9.7 0.00 0.00 0.00 74 1017.0
20260507223720 20 147 6.4 11.3 0.00 0.00 0.00 74 1017.0
20260507223217 20 276 4.8 14.5 0.00 0.00 0.00 74 1017.0
20260507222713 20 282 3.2 11.3 0.00 0.00 0.00 74 1016.6
20260507222210 20 273 8.0 12.9 0.00 0.00 0.00 75 1017.0
20260507221707 20 228 8.0 12.9 0.00 0.00 0.00 72 1017.0
20260507221203 20 294 4.8 11.3 0.00 0.00 0.00 72 1017.3
20260507220700 20 189 6.4 11.3 0.00 0.00 0.00 73 1017.3
20260507220158 20 261 4.8 12.9 0.00 0.00 0.00 72 1017.0
20260507215654 20 204 9.7 11.3 0.00 0.00 0.00 71 1017.0
20260507215151 20 321 3.2 14.5 0.00 0.00 0.00 73 1017.3
20260507214648 20 269 6.4 11.3 0.00 0.00 0.00 71 1017.3
20260507214145 20 287 4.8 11.3 0.00 0.00 0.00 73 1017.3
20260507213641 20 212 6.4 12.9 0.00 0.00 0.00 73 1017.3
20260507213138 20 273 4.8 6.4 0.00 0.00 0.00 73 1017.6
20260507212634 20 267 6.4 11.3 0.00 0.00 0.00 72 1017.3
20260507212131 20 282 8.0 11.3 0.00 0.00 0.00 72 1017.3
20260507211628 20 287 3.2 9.7 0.00 0.00 0.00 72 1017.6
20260507211123 20 226 4.8 11.3 0.00 0.00 0.00 72 1017.6
20260507210622 20 279 6.4 12.9 0.00 0.00 0.00 73 1017.6
20260507210118 20 237 8.0 12.9 0.00 0.00 0.00 73 1017.3
20260507205615 20 215 4.8 9.7 0.00 0.00 0.00 72 1017.6
20260507205111 21 204 1.6 6.4 0.00 0.00 0.00 70 1018.0
20260507204607 21 264 6.4 14.5 0.00 0.00 0.00 70 1017.6
20260507204105 20 319 3.2 11.3 0.00 0.00 0.00 72 1018.0
20260507203603 20 291 4.8 12.9 0.00 0.00 0.00 72 1018.0
20260507203100 20 275 6.4 14.5 0.00 0.00 0.00 72 1018.0
20260507202555 20 331 3.2 11.3 0.00 0.00 0.00 72 1018.0
20260507202052 20 239 6.4 11.3 0.00 0.00 0.00 71 1018.0
20260507201547 21 328 0.0 6.4 0.00 0.00 0.00 70 1017.6
20260507201044 21 322 3.2 6.4 0.00 0.00 0.00 69 1018.0
20260507200539 21 242 3.2 9.7 0.00 0.00 0.00 70 1018.3
20260507200036 20 260 3.2 9.7 0.00 0.00 0.00 71 1018.3
20260507195533 20 315 9.7 11.3 0.00 0.00 0.00 71 1018.0
20260507195031 20 192 8.0 12.9 0.00 0.00 0.00 71 1018.3
20260507194527 20 299 1.6 6.4 0.00 0.00 0.00 71 1018.7
20260507194023 20 293 4.8 11.3 0.00 0.00 0.00 72 1018.7
20260507193520 20 8 0.0 6.4 0.00 0.00 0.00 73 1018.3
20260507193017 20 255 6.4 11.3 0.00 0.00 0.00 73 1018.3
20260507192513 20 272 1.6 9.7 0.00 0.00 0.00 71 1018.7
20260507192010 20 303 3.2 9.7 0.00 0.00 0.00 72 1018.7
20260507191506 20 241 3.2 9.7 0.00 0.00 0.00 73 1018.7
20260507191003 20 290 4.8 11.3 0.00 0.00 0.00 72 1018.7
20260507190500 20 179 3.2 9.7 0.00 0.00 0.00 72 1018.7
20260507185959 20 235 8.0 9.7 0.00 0.00 0.00 70 1018.7
20260507185456 20 216 3.2 11.3 0.00 0.00 0.00 72 1018.7
20260507184953 20 41 1.6 4.8 0.00 0.00 0.00 71 1018.7
20260507184451 20 266 3.2 6.4 0.00 0.00 0.00 72 1019.0
20260507183949 20 272 4.8 6.4 0.00 0.00 0.00 70 1019.0
20260507183444 20 9 1.6 6.4 0.00 0.00 0.00 72 1018.7
20260507182942 20 188 6.4 12.9 0.00 0.00 0.00 71 1018.7
20260507182438 20 311 1.6 9.7 0.00 0.00 0.00 72 1018.7
20260507181934 20 158 3.2 9.7 0.00 0.00 0.00 71 1019.0
20260507181430 20 322 4.8 6.4 0.00 0.00 0.00 71 1019.0
20260507180927 20 300 3.2 4.8 0.00 0.00 0.00 73 1019.0
20260507180424 20 226 4.8 6.4 0.00 0.00 0.00 73 1018.7
20260507175920 20 295 3.2 6.4 0.00 0.00 0.00 73 1019.0
20260507175417 20 254 1.6 6.4 0.00 0.00 0.00 73 1019.0
20260507174915 19 296 1.6 11.3 0.00 0.00 0.00 74 1019.0
20260507174412 19 178 1.6 6.4 0.00 0.00 0.00 74 1019.0
20260507173909 19 255 1.6 6.4 0.00 0.00 0.00 75 1018.7
20260507173406 19 300 4.8 6.4 0.00 0.00 0.00 74 1019.0
20260507172902 20 296 3.2 9.7 0.00 0.00 0.00 73 1019.0
20260507172359 19 254 6.4 6.4 0.00 0.00 0.00 74 1018.7
20260507171855 19 301 3.2 4.8 0.00 0.00 0.00 75 1019.3
20260507171352 19 312 3.2 4.8 0.00 0.00 0.00 75 1019.0
20260507170849 20 300 4.8 6.4 0.00 0.00 0.00 73 1019.0
20260507170345 19 298 4.8 6.4 0.00 0.00 0.00 75 1019.0
20260507165841 20 305 3.2 6.4 0.00 0.00 0.00 74 1019.0
20260507165337 20 328 3.2 4.8 0.00 0.00 0.00 73 1019.0
20260507164834 20 327 1.6 6.4 0.00 0.00 0.00 74 1019.0
20260507164331 20 315 3.2 3.2 0.00 0.00 0.00 72 1019.0
20260507163828 20 308 1.6 3.2 0.00 0.00 0.00 73 1019.0
20260507163325 20 308 3.2 3.2 0.00 0.00 0.00 72 1019.3
20260507162821 19 319 3.2 3.2 0.00 0.00 0.00 74 1019.0
20260507162317 18 326 1.6 4.8 0.00 0.00 0.00 76 1019.0
20260507161815 19 345 1.6 4.8 0.00 0.00 0.00 76 1019.0
20260507161311 18 353 0.0 3.2 0.00 0.00 0.00 80 1019.3
20260507160808 18 344 1.6 3.2 0.00 0.00 0.00 79 1019.0
20260507160303 18 331 1.6 4.8 0.00 0.00 0.00 78 1019.0
20260507155759 18 346 1.6 4.8 0.00 0.00 0.00 79 1019.3
20260507155255 18 349 1.6 4.8 0.00 0.00 0.00 80 1019.3
20260507154752 18 343 1.6 3.2 0.00 0.00 0.00 80 1019.3
20260507154250 18 359 1.6 1.6 0.00 0.00 0.00 80 1019.3
20260507153746 18 354 1.6 4.8 0.00 0.00 0.00 80 1019.3
20260507153243 17 1 3.2 4.8 0.00 0.00 0.00 80 1019.3
20260507152739 18 11 1.6 3.2 0.00 0.00 0.00 80 1019.0
20260507152236 17 12 3.2 3.2 0.00 0.00 0.00 82 1019.3
20260507151732 17 350 3.2 3.2 0.00 0.00 0.00 81 1019.0
20260507151228 17 357 3.2 4.8 0.00 0.00 0.00 81 1019.3
20260507150725 17 11 1.6 3.2 0.00 0.00 0.00 82 1019.0
20260507150222 17 6 0.0 1.6 0.00 0.00 0.00 82 1019.3
20260507145718 17 8 0.0 1.6 0.00 0.00 0.00 83 1019.3
20260507145215 17 8 1.6 1.6 0.00 0.00 0.00 82 1019.3
20260507144712 17 11 0.0 1.6 0.00 0.00 0.00 82 1019.0
20260507144210 17 11 1.6 3.2 0.00 0.00 0.00 82 1019.3
20260507143706 17 10 0.0 1.6 0.00 0.00 0.00 82 1019.3
20260507143203 17 10 0.0 0.0 0.00 0.00 0.00 82 1019.0
20260507142659 17 11 0.0 0.0 0.00 0.00 0.00 85 1018.7
20260507142156 16 11 0.0 0.0 0.00 0.00 0.00 87 1019.0
20260507141652 16 10 0.0 0.0 0.00 0.00 0.00 90 1019.0
20260507141149 16 10 0.0 0.0 0.00 0.00 0.00 92 1019.0
20260507140645 16 10 0.0 0.0 0.00 0.00 0.00 94 1018.7
20260507140143 16 10 0.0 0.0 0.00 0.00 0.00 95 1019.0
20260507135640 16 11 0.0 0.0 0.00 0.00 0.00 95 1019.0
20260507135137 15 10 0.0 0.0 0.00 0.00 0.00 95 1018.7
20260507134633 15 10 0.0 0.0 0.00 0.00 0.00 95 1018.7
20260507134130 15 10 0.0 0.0 0.00 0.00 0.00 95 1018.7
20260507133625 15 10 0.0 0.0 0.00 0.00 0.00 95 1018.3
20260507133123 13 10 0.0 0.0 0.00 0.00 0.00 95 1018.7
20260507132620 13 10 0.0 0.0 0.00 0.00 0.00 95 1018.7
20260507132116 13 10 0.0 0.0 0.00 0.00 0.00 95 1018.7
20260507131613 13 10 0.0 0.0 0.00 0.00 0.00 95 1018.7
20260507131111 13 9 0.0 0.0 0.00 0.00 0.00 95 1018.7
20260507130607 13 9 0.0 0.0 0.00 0.00 0.00 95 1018.7
20260507130106 13 9 0.0 0.0 0.00 0.00 0.00 95 1018.3
20260507125604 12 9 0.0 0.0 0.00 0.00 0.00 95 1018.3
20260507125101 12 9 0.0 0.0 0.00 0.00 0.00 95 1018.3
20260507124557 12 9 0.0 0.0 0.00 0.00 0.00 95 1018.3
20260507124055 12 9 0.0 0.0 0.00 0.00 0.00 95 1018.7
20260507123553 12 9 0.0 0.0 0.00 0.00 0.00 95 1018.3
20260507123050 12 9 0.0 0.0 0.00 0.00 0.00 95 1018.3
20260507122545 12 9 0.0 0.0 0.00 0.00 0.00 95 1018.7
20260507122041 12 9 0.0 0.0 0.00 0.00 0.00 95 1018.7
20260507121537 12 9 0.0 0.0 0.00 0.00 0.00 95 1018.7
20260507121033 12 9 0.0 0.0 0.00 0.00 0.00 95 1018.3
20260507120529 12 9 0.0 0.0 0.00 0.00 0.00 95 1018.3
20260507120026 12 9 0.0 0.0 0.00 0.00 0.00 95 1018.3
20260507115522 12 8 0.0 0.0 0.00 0.00 0.00 95 1018.3
20260507115018 12 9 0.0 0.0 0.00 0.00 0.00 95 1018.3
20260507114514 12 9 0.0 0.0 0.00 0.00 0.00 95 1018.7
20260507114012 12 9 0.0 0.0 0.00 0.00 0.00 95 1018.3
20260507113509 12 8 0.0 0.0 0.00 0.00 0.00 95 1018.3
20260507113006 12 7 0.0 0.0 0.00 0.00 0.00 95 1018.3
20260507112503 12 6 0.0 0.0 0.00 0.00 0.00 95 1018.3
20260507112000 12 6 0.0 0.0 0.00 0.00 0.00 95 1018.7
20260507111457 12 6 0.0 0.0 0.00 0.00 0.00 95 1018.3
20260507110953 12 7 0.0 0.0 0.00 0.00 0.00 95 1018.7
20260507110450 13 7 0.0 0.0 0.00 0.00 0.00 95 1018.7
20260507105946 13 7 0.0 0.0 0.00 0.00 0.00 95 1018.3
20260507105443 13 7 0.0 0.0 0.00 0.00 0.00 95 1018.7
20260507104940 13 7 0.0 0.0 0.00 0.00 0.00 95 1018.7
20260507104437 13 7 0.0 0.0 0.00 0.00 0.00 95 1018.7
20260507103933 13 7 0.0 0.0 0.00 0.00 0.00 95 1018.7
20260507103430 13 5 0.0 0.0 0.00 0.00 0.00 95 1018.7
20260507102926 13 7 0.0 0.0 0.00 0.00 0.00 95 1019.0
20260507102423 13 7 0.0 0.0 0.00 0.00 0.00 95 1019.0
20260507101919 13 7 0.0 0.0 0.00 0.00 0.00 95 1019.0
20260507101414 13 6 0.0 0.0 0.00 0.00 0.00 95 1018.7
20260507100911 13 7 0.0 0.0 0.00 0.00 0.00 95 1018.7
20260507100409 13 7 0.0 0.0 0.00 0.00 0.00 95 1019.0
20260507095907 13 7 0.0 0.0 0.00 0.00 0.00 95 1019.0
20260507095403 13 7 0.0 0.0 0.00 0.00 0.00 95 1018.7
20260507094901 13 8 0.0 0.0 0.00 0.00 0.00 95 1018.7
20260507094357 13 8 0.0 0.0 0.00 0.00 0.00 95 1019.0
20260507093854 13 11 0.0 0.0 0.00 0.00 0.00 95 1019.0
20260507093352 13 12 0.0 0.0 0.00 0.00 0.00 95 1019.0
20260507092850 13 13 0.0 0.0 0.00 0.00 0.00 94 1019.0
20260507092346 13 13 0.0 0.0 0.00 0.00 0.00 94 1019.0
20260507091842 13 13 0.0 0.0 0.00 0.00 0.00 94 1019.0
20260507091339 13 13 0.0 0.0 0.00 0.00 0.00 94 1019.0
20260507090835 13 13 0.0 0.0 0.00 0.00 0.00 94 1019.3
20260507090331 13 13 0.0 0.0 0.00 0.00 0.00 94 1019.3
20260507085828 13 13 0.0 0.0 0.00 0.00 0.00 94 1019.3
20260507085325 13 12 0.0 0.0 0.00 0.00 0.00 94 1019.3
20260507084823 13 12 0.0 0.0 0.00 0.00 0.00 94 1019.3
20260507084319 13 13 0.0 0.0 0.00 0.00 0.00 94 1019.3
20260507083816 13 12 0.0 0.0 0.00 0.00 0.00 94 1019.3
20260507083313 13 15 0.0 0.0 0.00 0.00 0.00 94 1019.3
20260507082809 13 14 0.0 0.0 0.00 0.00 0.00 94 1019.7
20260507082306 13 17 0.0 0.0 0.00 0.00 0.00 94 1019.7
20260507081802 13 14 0.0 0.0 0.00 0.00 0.00 94 1019.3
20260507081257 13 14 0.0 0.0 0.00 0.00 0.00 94 1019.7
20260507080755 13 12 0.0 0.0 0.00 0.00 0.00 94 1019.3
20260507080251 13 12 0.0 0.0 0.00 0.00 0.00 94 1019.7
20260507075746 13 13 0.0 0.0 0.00 0.00 0.00 94 1019.7
20260507075242 13 12 0.0 0.0 0.00 0.00 0.00 94 1019.7
20260507074739 13 12 0.0 0.0 0.00 0.00 0.00 94 1019.7
20260507074237 13 11 0.0 0.0 0.00 0.00 0.00 93 1019.7
20260507073733 13 11 0.0 0.0 0.00 0.00 0.00 93 1019.7
20260507073230 13 11 0.0 0.0 0.00 0.00 0.00 93 1020.0
20260507072728 13 10 0.0 0.0 0.00 0.00 0.00 93 1020.0
20260507072225 13 10 0.0 0.0 0.00 0.00 0.00 93 1020.0
20260507071723 14 11 0.0 0.0 0.00 0.00 0.00 93 1019.7
20260507071219 14 11 0.0 0.0 0.00 0.00 0.00 93 1019.7
20260507070716 14 9 0.0 0.0 0.00 0.00 0.00 93 1019.7
20260507070213 14 8 0.0 0.0 0.00 0.00 0.00 93 1020.0